Location: Peebles
(55.6412°N, 3.1714°W)
Time: 11:08:48
(UTC+01:00)

FENGYUN 1C DEB - Pass Details

Date: 11 July 2022
Orbit: 580 x 1160 km, 99.3° (Epoch: 14 August)

Event Time Altitude Azimuth Distance (km) Brightness Sun altitude
Exits shadow 03:05:36 - 241° (WSW) 3,296 ? -9.0°
Reaches altitude 10° 03:08:24 10° 262° (W) 2,829 ? -8.8°
Maximum altitude 03:10:55 12° 285° (WNW) 2,725 ? -8.6°
Drops below altitude 10° 03:13:31 10° 308° (NW) 2,960 ? -8.5°
Sets 03:18:16 0° 336° (NNW) 4,005 ? -8.2°
